• In France
  • List of Countries
  • For 7 days
  • Water Temperature
  • Satellite Maps
  • Weather Map
  • Weather Widgets
  • user-avatar
    Login

    Hourly Weather Mokoa

    Today, 18 December, Monday

    Time Temperature Precipitation Wind Pressure Humidity
    00:00 +26°C° 0 mm 5 mps 755 mmHg 85%
    01:00 +26°C° 0 mm 4 mps 755 mmHg 86%
    02:00 +26°C° 0.1 mm 4 mps 755 mmHg 87%
    03:00 +26°C° 0.1 mm 4 mps 755 mmHg 88%
    04:00 +26°C° 0.1 mm 4 mps 755 mmHg 90%
    05:00 +26°C° 0.3 mm 4 mps 755 mmHg 89%
    06:00 +26°C° 0.3 mm 5 mps 755 mmHg 89%
    07:00 +27°C° 0 mm 5 mps 756 mmHg 88%
    08:00 +28°C° 0.2 mm 5 mps 756 mmHg 80%
    09:00 +30°C° 0.2 mm 6 mps 756 mmHg 73%
    10:00 +32°C° 0.2 mm 6 mps 756 mmHg 66%
    11:00 +33°C° 0 mm 6 mps 755 mmHg 60%
    12:00 +34°C° 0 mm 6 mps 755 mmHg 53%
    13:00 +35°C° 0 mm 6 mps 754 mmHg 47%
    14:00 +34°C° 0 mm 6 mps 754 mmHg 50%
    15:00 +34°C° 0 mm 6 mps 754 mmHg 52%
    16:00 +33°C° 0 mm 6 mps 753 mmHg 55%
    17:00 +32°C° 0 mm 6 mps 754 mmHg 63%
    18:00 +29°C° 0 mm 6 mps 754 mmHg 71%
    19:00 +28°C° 0 mm 5 mps 754 mmHg 79%
    20:00 +27°C° 0.1 mm 5 mps 755 mmHg 81%
    21:00 +27°C° 0.1 mm 5 mps 755 mmHg 83%
    22:00 +27°C° 0.1 mm 5 mps 756 mmHg 85%
    23:00 +27°C° 0.1 mm 5 mps 756 mmHg 86%

    Tomorrow, 19 December, Tuesday

    Time Temperature Precipitation Wind Pressure Humidity
    00:00 +27°C° 0.1 mm 5 mps 755 mmHg 86%
    01:00 +27°C° 0.1 mm 5 mps 755 mmHg 87%
    02:00 +27°C° 0.1 mm 5 mps 755 mmHg 87%
    03:00 +26°C° 0.1 mm 4 mps 755 mmHg 87%
    04:00 +26°C° 0.1 mm 4 mps 755 mmHg 88%
    05:00 +26°C° 0.1 mm 4 mps 755 mmHg 87%
    06:00 +27°C° 0.1 mm 4 mps 755 mmHg 87%
    07:00 +27°C° 0.1 mm 4 mps 756 mmHg 86%
    08:00 +28°C° 0.1 mm 5 mps 756 mmHg 79%
    09:00 +30°C° 0.1 mm 5 mps 756 mmHg 71%
    10:00 +32°C° 0.1 mm 6 mps 756 mmHg 64%
    11:00 +33°C° 0 mm 6 mps 756 mmHg 60%
    12:00 +34°C° 0 mm 6 mps 755 mmHg 55%
    13:00 +35°C° 0 mm 6 mps 754 mmHg 51%
    14:00 +34°C° 0 mm 6 mps 754 mmHg 53%
    15:00 +34°C° 0 mm 6 mps 753 mmHg 55%
    16:00 +33°C° 0 mm 6 mps 753 mmHg 57%
    17:00 +32°C° 0 mm 6 mps 753 mmHg 65%
    18:00 +29°C° 0 mm 6 mps 753 mmHg 72%
    19:00 +28°C° 0 mm 5 mps 754 mmHg 79%
    20:00 +28°C° 0.2 mm 5 mps 754 mmHg 81%
    21:00 +27°C° 0.2 mm 5 mps 754 mmHg 83%
    22:00 +27°C° 0.2 mm 5 mps 755 mmHg 84%
    23:00 +27°C° 0.1 mm 5 mps 755 mmHg 85%

    Day after tomorrow, 20 December, Wednesday

    Time Temperature Precipitation Wind Pressure Humidity
    00:00 +27°C° 0.1 mm 5 mps 755 mmHg 86%
    01:00 +27°C° 0.1 mm 5 mps 754 mmHg 87%
    02:00 +26°C° 0.1 mm 4 mps 754 mmHg 88%
    03:00 +26°C° 0.1 mm 4 mps 754 mmHg 88%
    04:00 +26°C° 0.1 mm 4 mps 754 mmHg 89%
    05:00 +26°C° 0.1 mm 4 mps 754 mmHg 88%
    06:00 +26°C° 0.1 mm 4 mps 755 mmHg 88%
    07:00 +27°C° 0.1 mm 4 mps 755 mmHg 87%
    08:00 +28°C° 0.1 mm 5 mps 755 mmHg 79%
    09:00 +30°C° 0.1 mm 5 mps 756 mmHg 72%
    10:00 +32°C° 0.1 mm 6 mps 756 mmHg 64%
    11:00 +33°C° 0.1 mm 6 mps 755 mmHg 61%
    12:00 +33°C° 0.1 mm 6 mps 755 mmHg 58%
    13:00 +34°C° 0.1 mm 6 mps 754 mmHg 55%
    14:00 +34°C° 0 mm 6 mps 753 mmHg 56%
    15:00 +33°C° 0 mm 6 mps 753 mmHg 57%
    16:00 +33°C° 0 mm 6 mps 752 mmHg 58%
    17:00 +30°C° 0 mm 6 mps 753 mmHg 64%
    18:00 +29°C° 0 mm 5 mps 753 mmHg 70%
    19:00 +28°C° 0 mm 5 mps 753 mmHg 75%
    20:00 +27°C° 0 mm 5 mps 754 mmHg 78%
    21:00 +27°C° 0 mm 5 mps 754 mmHg 80%
    22:00 +26°C° 0 mm 5 mps 755 mmHg 83%
    23:00 +26°C° 0 mm 4 mps 754 mmHg 84%

    21 December, Thursday

    Time Temperature Precipitation Wind Pressure Humidity
    00:00 +26°C° 0 mm 4 mps 754 mmHg 86%
    01:00 +26°C° 0 mm 4 mps 754 mmHg 87%
    02:00 +25°C° 0 mm 3 mps 754 mmHg 88%
    03:00 +25°C° 0 mm 3 mps 753 mmHg 88%
    04:00 +25°C° 0 mm 3 mps 753 mmHg 89%
    05:00 +25°C° 0.2 mm 3 mps 754 mmHg 88%
    06:00 +25°C° 0.2 mm 3 mps 754 mmHg 87%
    07:00 +26°C° 0.2 mm 3 mps 755 mmHg 86%
    08:00 +27°C° 0.7 mm 3 mps 755 mmHg 79%
    09:00 +29°C° 0.7 mm 4 mps 755 mmHg 71%
    10:00 +30°C° 0.7 mm 4 mps 756 mmHg 64%
    11:00 +32°C° 0 mm 5 mps 755 mmHg 56%
    12:00 +33°C° 0 mm 5 mps 754 mmHg 49%
    13:00 +34°C° 0 mm 5 mps 754 mmHg 41%
    14:00 +34°C° 0 mm 5 mps 753 mmHg 43%
    15:00 +33°C° 0 mm 5 mps 753 mmHg 46%
    16:00 +33°C° 0 mm 5 mps 752 mmHg 48%
    17:00 +30°C° 0 mm 5 mps 753 mmHg 57%
    18:00 +28°C° 0 mm 5 mps 753 mmHg 66%
    19:00 +27°C° 0 mm 4 mps 754 mmHg 76%
    20:00 +27°C° 0.1 mm 4 mps 754 mmHg 79%
    21:00 +26°C° 0.1 mm 4 mps 755 mmHg 83%
    22:00 +26°C° 0.1 mm 4 mps 755 mmHg 87%
    23:00 +26°C° 0.1 mm 4 mps 755 mmHg 88%

    22 December, Friday

    Time Temperature Precipitation Wind Pressure Humidity
    00:00 +26°C° 0.1 mm 4 mps 754 mmHg 89%
    01:00 +26°C° 0.1 mm 4 mps 754 mmHg 89%
    02:00 +26°C° 0.1 mm 4 mps 754 mmHg 90%
    03:00 +26°C° 0.1 mm 4 mps 754 mmHg 90%
    04:00 +26°C° 0.1 mm 3 mps 754 mmHg 91%
    05:00 +26°C° 0.3 mm 4 mps 754 mmHg 90%
    06:00 +26°C° 0.3 mm 4 mps 755 mmHg 89%
    07:00 +26°C° 0.3 mm 4 mps 755 mmHg 88%
    08:00 +28°C° 0.3 mm 4 mps 756 mmHg 81%
    09:00 +29°C° 0.3 mm 5 mps 756 mmHg 73%
    10:00 +32°C° 0.3 mm 6 mps 756 mmHg 65%
    11:00 +33°C° 0 mm 6 mps 755 mmHg 61%
    12:00 +34°C° 0 mm 6 mps 754 mmHg 57%
    13:00 +34°C° 0 mm 6 mps 754 mmHg 53%
    14:00 +34°C° 0 mm 6 mps 753 mmHg 55%
    15:00 +33°C° 0 mm 6 mps 753 mmHg 58%
    16:00 +33°C° 0 mm 6 mps 752 mmHg 60%
    17:00 +30°C° 0 mm 6 mps 753 mmHg 66%
    18:00 +29°C° 0 mm 5 mps 753 mmHg 72%
    19:00 +28°C° 0 mm 5 mps 754 mmHg 79%
    20:00 +27°C° 0.1 mm 5 mps 754 mmHg 81%
    21:00 +27°C° 0.1 mm 5 mps 755 mmHg 83%
    22:00 +27°C° 0.1 mm 5 mps 755 mmHg 85%
    23:00 +27°C° 0.1 mm 5 mps 755 mmHg 85%

    23 December, Saturday

    Time Temperature Precipitation Wind Pressure Humidity
    00:00 +27°C° 0.1 mm 4 mps 755 mmHg 86%
    01:00 +27°C° 0.1 mm 4 mps 755 mmHg 86%
    02:00 +26°C° 0.1 mm 4 mps 754 mmHg 88%
    03:00 +26°C° 0.1 mm 4 mps 754 mmHg 89%
    04:00 +26°C° 0.1 mm 4 mps 754 mmHg 90%
    05:00 +26°C° 0.2 mm 4 mps 755 mmHg 89%
    06:00 +26°C° 0.2 mm 4 mps 755 mmHg 88%
    07:00 +27°C° 0.2 mm 4 mps 756 mmHg 86%
    08:00 +28°C° 0.2 mm 5 mps 756 mmHg 80%
    09:00 +29°C° 0.2 mm 5 mps 756 mmHg 73%
    10:00 +32°C° 0.2 mm 6 mps 756 mmHg 67%
    11:00 +32°C° 0.1 mm 6 mps 755 mmHg 63%
    12:00 +33°C° 0.1 mm 6 mps 755 mmHg 59%
    13:00 +34°C° 0.1 mm 6 mps 754 mmHg 56%
    14:00 +33°C° 0.1 mm 6 mps 753 mmHg 56%
    15:00 +33°C° 0.1 mm 6 mps 753 mmHg 57%
    16:00 +33°C° 0.1 mm 6 mps 753 mmHg 57%
    17:00 +30°C° 0 mm 6 mps 753 mmHg 64%
    18:00 +29°C° 0 mm 5 mps 754 mmHg 70%
    19:00 +27°C° 0 mm 5 mps 754 mmHg 76%
    20:00 +27°C° 0 mm 5 mps 754 mmHg 79%
    21:00 +26°C° 0 mm 5 mps 755 mmHg 81%
    22:00 +26°C° 0 mm 4 mps 755 mmHg 83%
    23:00 +26°C° 0 mm 4 mps 755 mmHg 85%
    Show more